Hourly Weather Barra de Sao Francisco

Today, 23 September, Wednesday

Time Temperature Precipitation Wind Pressure Humidity
00:00 +24°C° 0.1 mm 1 mps 742 mmHg 88%
01:00 +24°C° 0.3 mm 1 mps 741 mmHg 89%
02:00 +24°C° 0.3 mm 1 mps 741 mmHg 90%
03:00 +21°C° 0.3 mm 0 mps 741 mmHg 91%
04:00 +21°C° 0.3 mm 0 mps 741 mmHg 91%
05:00 +21°C° 0.3 mm 0 mps 741 mmHg 91%
06:00 +21°C° 0.3 mm 0 mps 741 mmHg 91%
07:00 +21°C° 0.4 mm 0 mps 742 mmHg 90%
08:00 +24°C° 0.4 mm 1 mps 743 mmHg 88%
09:00 +24°C° 0.4 mm 1 mps 743 mmHg 86%
10:00 +25°C° 0.2 mm 1 mps 743 mmHg 81%
11:00 +26°C° 0.2 mm 1 mps 743 mmHg 76%
12:00 +26°C° 0.2 mm 2 mps 743 mmHg 70%
13:00 +26°C° 0.2 mm 2 mps 742 mmHg 71%
14:00 +26°C° 0.2 mm 3 mps 742 mmHg 71%
15:00 +26°C° 0.2 mm 4 mps 741 mmHg 72%
16:00 +25°C° 0.2 mm 3 mps 741 mmHg 76%
17:00 +25°C° 0.2 mm 3 mps 742 mmHg 80%
18:00 +24°C° 0.2 mm 3 mps 742 mmHg 84%
19:00 +22°C° 0 mm 3 mps 742 mmHg 85%
20:00 +23°C° 0 mm 2 mps 743 mmHg 87%
21:00 +23°C° 0 mm 2 mps 743 mmHg 88%
22:00 +21°C° 0 mm 2 mps 743 mmHg 90%
23:00 +22°C° 0 mm 1 mps 743 mmHg 91%

Tomorrow, 24 September, Thursday

Time Temperature Precipitation Wind Pressure Humidity
00:00 +22°C° 0 mm 1 mps 743 mmHg 93%
01:00 +21°C° 0 mm 1 mps 742 mmHg 93%
02:00 +21°C° 0 mm 1 mps 742 mmHg 93%
03:00 +19°C° 0 mm 0 mps 741 mmHg 93%
04:00 +19°C° 0 mm 0 mps 742 mmHg 93%
05:00 +19°C° 0 mm 0 mps 742 mmHg 93%
06:00 +19°C° 0 mm 0 mps 742 mmHg 92%
07:00 +23°C° 0 mm 1 mps 742 mmHg 81%
08:00 +25°C° 0 mm 2 mps 743 mmHg 71%
09:00 +26°C° 0 mm 2 mps 743 mmHg 60%
10:00 +27°C° 0 mm 3 mps 743 mmHg 57%
11:00 +28°C° 0 mm 3 mps 742 mmHg 53%
12:00 +29°C° 0 mm 3 mps 742 mmHg 50%
13:00 +29°C° 0 mm 3 mps 741 mmHg 50%
14:00 +29°C° 0 mm 3 mps 741 mmHg 50%
15:00 +29°C° 0 mm 3 mps 740 mmHg 51%
16:00 +28°C° 0 mm 3 mps 740 mmHg 55%
17:00 +26°C° 0 mm 3 mps 741 mmHg 59%
18:00 +25°C° 0 mm 3 mps 741 mmHg 63%
19:00 +24°C° 0 mm 2 mps 741 mmHg 69%
20:00 +23°C° 0 mm 2 mps 741 mmHg 76%
21:00 +21°C° 0 mm 2 mps 742 mmHg 82%
22:00 +21°C° 0 mm 1 mps 742 mmHg 86%
23:00 +21°C° 0 mm 1 mps 742 mmHg 90%

Day after tomorrow, 25 September, Friday

Time Temperature Precipitation Wind Pressure Humidity
00:00 +20°C° 0 mm 1 mps 742 mmHg 94%
01:00 +20°C° 0 mm 1 mps 741 mmHg 95%
02:00 +18°C° 0 mm 0 mps 741 mmHg 95%
03:00 +18°C° 0 mm 0 mps 741 mmHg 96%
04:00 +19°C° 0 mm 0 mps 741 mmHg 94%
05:00 +19°C° 0 mm 0 mps 741 mmHg 92%
06:00 +19°C° 0 mm 0 mps 742 mmHg 90%
07:00 +23°C° 0 mm 1 mps 742 mmHg 80%
08:00 +25°C° 0 mm 1 mps 742 mmHg 71%
09:00 +26°C° 0 mm 2 mps 743 mmHg 61%
10:00 +28°C° 0 mm 2 mps 742 mmHg 56%
11:00 +29°C° 0 mm 2 mps 742 mmHg 51%
12:00 +30°C° 0 mm 3 mps 741 mmHg 47%
13:00 +30°C° 0 mm 3 mps 741 mmHg 48%
14:00 +30°C° 0 mm 3 mps 740 mmHg 49%
15:00 +29°C° 0 mm 3 mps 739 mmHg 50%
16:00 +28°C° 0.1 mm 3 mps 739 mmHg 56%
17:00 +27°C° 0.1 mm 3 mps 740 mmHg 62%
18:00 +25°C° 0.1 mm 3 mps 740 mmHg 68%
19:00 +24°C° 0 mm 3 mps 740 mmHg 73%
20:00 +23°C° 0 mm 2 mps 741 mmHg 77%
21:00 +22°C° 0 mm 1 mps 741 mmHg 82%
22:00 +21°C° 0 mm 1 mps 741 mmHg 86%
23:00 +21°C° 0 mm 1 mps 741 mmHg 90%

26 September, Saturday

Time Temperature Precipitation Wind Pressure Humidity
00:00 +18°C° 0 mm 0 mps 740 mmHg 94%
01:00 +19°C° 0 mm 0 mps 740 mmHg 93%
02:00 +19°C° 0 mm 0 mps 740 mmHg 92%
03:00 +19°C° 0 mm 0 mps 739 mmHg 90%
04:00 +20°C° 0 mm 0 mps 740 mmHg 90%
05:00 +20°C° 0 mm 0 mps 740 mmHg 89%
06:00 +20°C° 0 mm 0 mps 740 mmHg 89%
07:00 +23°C° 0.1 mm 1 mps 741 mmHg 81%
08:00 +25°C° 0.1 mm 1 mps 741 mmHg 74%
09:00 +26°C° 0.1 mm 2 mps 741 mmHg 66%
10:00 +27°C° 0 mm 2 mps 741 mmHg 61%
11:00 +28°C° 0 mm 2 mps 741 mmHg 56%
12:00 +29°C° 0 mm 2 mps 740 mmHg 51%
13:00 +30°C° 0 mm 2 mps 740 mmHg 49%
14:00 +30°C° 0 mm 2 mps 739 mmHg 46%
15:00 +31°C° 0 mm 3 mps 738 mmHg 44%
16:00 +29°C° 0 mm 2 mps 738 mmHg 48%
17:00 +28°C° 0 mm 2 mps 738 mmHg 52%
18:00 +26°C° 0 mm 2 mps 738 mmHg 57%
19:00 +25°C° 0 mm 2 mps 739 mmHg 66%
20:00 +23°C° 0 mm 2 mps 739 mmHg 76%
21:00 +21°C° 0 mm 2 mps 739 mmHg 85%
22:00 +21°C° 0 mm 2 mps 739 mmHg 86%
23:00 +21°C° 0 mm 2 mps 739 mmHg 88%

27 September, Sunday

Time Temperature Precipitation Wind Pressure Humidity
00:00 +21°C° 0 mm 2 mps 739 mmHg 89%
01:00 +21°C° 0 mm 2 mps 738 mmHg 88%
02:00 +21°C° 0 mm 2 mps 738 mmHg 86%
03:00 +22°C° 0 mm 1 mps 738 mmHg 85%
04:00 +22°C° 0 mm 1 mps 738 mmHg 86%
05:00 +22°C° 0 mm 1 mps 738 mmHg 88%
06:00 +21°C° 0 mm 1 mps 738 mmHg 89%
07:00 +23°C° 0 mm 1 mps 739 mmHg 80%
08:00 +25°C° 0 mm 2 mps 739 mmHg 70%
09:00 +27°C° 0 mm 2 mps 739 mmHg 60%
10:00 +29°C° 0 mm 2 mps 739 mmHg 52%
11:00 +30°C° 0 mm 2 mps 739 mmHg 44%
12:00 +33°C° 0 mm 3 mps 738 mmHg 35%
13:00 +34°C° 0 mm 2 mps 737 mmHg 33%
14:00 +34°C° 0 mm 2 mps 737 mmHg 30%
15:00 +35°C° 0 mm 2 mps 736 mmHg 28%
16:00 +32°C° 0 mm 2 mps 736 mmHg 33%
17:00 +30°C° 0 mm 2 mps 736 mmHg 39%
18:00 +28°C° 0 mm 2 mps 736 mmHg 44%
19:00 +26°C° 0 mm 2 mps 737 mmHg 55%
20:00 +25°C° 0 mm 2 mps 737 mmHg 66%
21:00 +23°C° 0 mm 1 mps 738 mmHg 77%
22:00 +22°C° 0 mm 1 mps 738 mmHg 82%
23:00 +22°C° 0 mm 1 mps 738 mmHg 86%

28 September, Monday

Time Temperature Precipitation Wind Pressure Humidity
00:00 +21°C° 0 mm 1 mps 738 mmHg 90%
01:00 +21°C° 0 mm 1 mps 737 mmHg 92%
02:00 +21°C° 0 mm 1 mps 737 mmHg 93%
03:00 +20°C° 0 mm 1 mps 736 mmHg 95%
04:00 +18°C° 0 mm 0 mps 737 mmHg 94%
05:00 +18°C° 0 mm 0 mps 737 mmHg 94%
06:00 +18°C° 0 mm 0 mps 737 mmHg 93%
07:00 +21°C° 0 mm 0 mps 737 mmHg 80%
08:00 +24°C° 0 mm 0 mps 738 mmHg 67%
09:00 +29°C° 0 mm 1 mps 738 mmHg 55%
10:00 +31°C° 0 mm 1 mps 738 mmHg 48%
11:00 +33°C° 0 mm 1 mps 737 mmHg 41%
12:00 +36°C° 0 mm 2 mps 737 mmHg 34%
13:00 +36°C° 0 mm 2 mps 736 mmHg 32%
14:00 +37°C° 0 mm 2 mps 735 mmHg 29%
15:00 +37°C° 0 mm 2 mps 735 mmHg 27%
16:00 +35°C° 0 mm 2 mps 735 mmHg 32%
17:00 +32°C° 0 mm 2 mps 735 mmHg 36%
18:00 +30°C° 0 mm 2 mps 735 mmHg 41%
19:00 +29°C° 0 mm 2 mps 735 mmHg 48%
20:00 +27°C° 0 mm 2 mps 736 mmHg 54%
21:00 +26°C° 0 mm 1 mps 736 mmHg 61%
22:00 +25°C° 0 mm 1 mps 736 mmHg 68%
23:00 +24°C° 0 mm 1 mps 736 mmHg 75%
Show more